Regional Weather Roundup
Issued by NWS

Home | Current Version | Previous Version | Text Only | Print | Product List | Glossary On
Versions: 1 2 3 4 5 6 7 8 9 10 11 12 13 14 15 16 17 18 19 20 21 22 23 24 25 26 27 28 29 30 31 32 33 34 35 36 37 38 39 40 41 42 43 44 45 46 47 48 49 50
000
ASUS43 KTOP 231208
RWRKS

WEATHER ROUNDUP FOR KANSAS
NATIONAL WEATHER SERVICE GOODLAND KS
600 AM CST MON JAN 23 2017

NOTE:  "FAIR" INDICATES FEW OR NO CLOUDS BELOW 12,000 FEET WITH NO
SIGNIFICANT WEATHER AND/OR OBSTRUCTIONS TO VISIBILITY.

KSZ001>006-013>018-027>032-041>047-231300-
NORTHWEST KANSAS

CITY           SKY/WX    TMP DP  RH WIND       PRES   REMARKS
GOODLAND       CLOUDY    29  25  85 S8        29.75S
6HR MIN TEMP:  27; 6HR MAX TEMP:  34;

HAYS           PTCLDY    24  23  96 CALM      29.85F
HILL CITY      CLOUDY    27  25  92 N5        29.83F
6HR MIN TEMP:  23; 6HR MAX TEMP:  29;

RUSSELL        CLEAR     24  22  91 SW8       29.84F
6HR MIN TEMP:  23; 6HR MAX TEMP:  29;

$$

KSZ061>065-074>080-084>089-231300-
SOUTHWEST KANSAS

CITY           SKY/WX    TMP DP  RH WIND       PRES   REMARKS
DODGE CITY     CLOUDY    29  24  82 SW7       29.84F
6HR MIN TEMP:  27; 6HR MAX TEMP:  33;

ELKHART          N/A     32  20  61 S10         N/A  WCI  24
GARDEN CITY    CLOUDY    27  22  81 S9        29.79F
6HR MIN TEMP:  26; 6HR MAX TEMP:  31;

GREAT BEND     CLOUDY    26  24  92 SW5       29.87F
LIBERAL          N/A     28  21  74 SW8       29.84F
PRATT          CLOUDY    27  23  82 CALM      29.88F
6HR MIN TEMP:  24; 6HR MAX TEMP:  29;

$$

KSZ066>073-081>083-090>101-231300-
SOUTHEAST KANSAS

CITY           SKY/WX    TMP DP  RH WIND       PRES   REMARKS
CHANUTE        CLEAR     28  26  92 NW3       29.90F
6HR MIN TEMP:  28; 6HR MAX TEMP:  33;

COFFEYVILLE    CLEAR     30  30 100 NW3       29.93S
6HR MIN TEMP:  29; 6HR MAX TEMP:  35;

HUTCHINSON     CLEAR     23  21  92 SE6       29.90R
6HR MIN TEMP:  23; 6HR MAX TEMP:  31;

MEDICINE LODGE   N/A     24  22  91 NE3       29.89F
NEWTON         CLEAR     29  27  92 S3        29.90R
PARSONS        CLEAR     28  26  92 CALM      29.92F
6HR MIN TEMP:  26; 6HR MAX TEMP:  34;

WICHITA INTL   CLEAR     27  26  96 S3        29.91S
6HR MIN TEMP:  26; 6HR MAX TEMP:  32;

WICHITA JABRA  CLEAR     29  28  96 CALM      29.90S
6HR MIN TEMP:  27; 6HR MAX TEMP:  33;

WICHITA MCCONL CLEAR     30  28  93 CALM      29.90F
WINFIELD       CLEAR     29  26  89 CALM      29.93S
6HR MIN TEMP:  27; 6HR MAX TEMP:  34;

$$

KSZ007>012-019>026-033>040-048>060-102>105-231300-
NORTHEAST KANSAS

CITY           SKY/WX    TMP DP  RH WIND       PRES   REMARKS
CONCORDIA      CLEAR     26  25  96 S3        29.87F
6HR MIN TEMP:  23; 6HR MAX TEMP:  31;

EMPORIA        CLEAR     26  25  96 NW5       29.91S FOG
6HR MIN TEMP:  26; 6HR MAX TEMP:  30;

LAWRENCE       FOG       23  23 100 CALM      29.91S VSB 1/4
6HR MIN TEMP:  24; 6HR MAX TEMP:  31;

MANHATTAN      PTCLDY    22  19  89 CALM      29.91S
6HR MIN TEMP:  22; 6HR MAX TEMP:  28;

MARYSVILLE     FOG       23  23 100 CALM      29.90S VSB 1/4
OLATHE IND     CLEAR     28  27  96 NW7       29.89F FOG
6HR MIN TEMP:  28; 6HR MAX TEMP:  34;

OLATHE EXE     CLEAR     29  29 100 NW7       29.88F
6HR MIN TEMP:  29; 6HR MAX TEMP:  36;

SALINA           N/A    N/A N/A N/A MISG        N/A
TOPEKA BILLARD PTCLDY    26  22  84 CALM      29.91R FOG
6HR MIN TEMP:  25; 6HR MAX TEMP:  33;

TOPEKA FORBES  FOG       25  23  92 CALM      29.89F VSB 1/4
6HR MIN TEMP:  25; 6HR MAX TEMP:  33;

$$




USA.gov is the U.S. government's official web portal to all federal, state and local government web resources and services.